CES5531 ZSWX-ZSNJ

Flight info

Callsign CES5531
Flight time 0h 27m
Altitude 15700
Route ESBAG
Aircraft B463/M-SDE1E2E3FGHIJ2J3J4J5M1RWXYZ/LB1D1

Departure

Time 2026-05-06 04:44
Airport Sunan Shuofang International Airport (ZSWX)

Arrival

Time 2026-05-06 05:11
Airport Nanjing Lukou International Airport (ZSNJ)
Time Latitude Longitude Altitude Speed Heading
2026-05-06 04:41 31.48461 120.42360 24 ft 0 kts 137°
2026-05-06 04:41 31.48443 120.42379 26 ft 10 kts 135°
2026-05-06 04:42 31.48418 120.42466 23 ft 14 kts 72°
2026-05-06 04:42 31.48463 120.42512 23 ft 1 kts 20°
2026-05-06 04:42 31.48466 120.42513 23 ft 2 kts 20°
2026-05-06 04:42 31.48578 120.42561 24 ft 41 kts 20°
2026-05-06 04:43 31.48994 120.42740 22 ft 84 kts 20°
2026-05-06 04:43 31.49659 120.43026 23 ft 119 kts 20°
2026-05-06 04:43 31.50557 120.43415 52 ft 158 kts 22°
2026-05-06 04:43 31.51638 120.43898 501 ft 169 kts 22°
2026-05-06 04:44 31.52745 120.44406 1079 ft 177 kts 24°
2026-05-06 04:44 31.53906 120.44951 1740 ft 181 kts 24°
2026-05-06 04:44 31.55078 120.45522 2448 ft 175 kts 25°
2026-05-06 04:44 31.56211 120.46011 2806 ft 179 kts 20°
2026-05-06 04:45 31.57464 120.46473 2912 ft 196 kts 19°
2026-05-06 04:45 31.58756 120.46950 3342 ft 195 kts 22°
2026-05-06 04:45 31.60090 120.47548 3526 ft 217 kts 21°
2026-05-06 04:45 31.61536 120.48112 4127 ft 214 kts 18°
2026-05-06 04:46 31.62940 120.48654 4838 ft 212 kts 17°
2026-05-06 04:46 31.64409 120.48604 5258 ft 214 kts 333°
2026-05-06 04:46 31.65496 120.47467 5811 ft 211 kts 302°
2026-05-06 04:46 31.66278 120.46000 6312 ft 214 kts 297°
2026-05-06 04:47 31.66951 120.44452 6878 ft 212 kts 293°
2026-05-06 04:47 31.67527 120.42847 7437 ft 212 kts 290°
2026-05-06 04:47 31.67940 120.41196 7960 ft 211 kts 268°
2026-05-06 04:47 31.67449 120.39649 8581 ft 205 kts 229°
2026-05-06 04:48 31.66419 120.38469 9108 ft 209 kts 224°
2026-05-06 04:48 31.65308 120.37326 9554 ft 218 kts 221°
2026-05-06 04:48 31.64083 120.36227 9859 ft 232 kts 218°
2026-05-06 04:48 31.62731 120.35077 10311 ft 247 kts 217°
2026-05-06 04:49 31.61291 120.33881 10782 ft 260 kts 217°
2026-05-06 04:49 31.59785 120.32608 11209 ft 274 kts 224°
2026-05-06 04:49 31.58734 120.30745 11649 ft 282 kts 255°
2026-05-06 04:49 31.58627 120.28429 12143 ft 291 kts 275°
2026-05-06 04:50 31.58830 120.26032 12635 ft 300 kts 276°
2026-05-06 04:50 31.59046 120.23546 12943 ft 313 kts 276°
2026-05-06 04:50 31.59278 120.20959 13256 ft 323 kts 276°
2026-05-06 04:50 31.59499 120.18335 13692 ft 327 kts 275°
2026-05-06 04:51 31.59695 120.15667 14022 ft 327 kts 275°
2026-05-06 04:51 31.59856 120.13005 14351 ft 328 kts 274°
2026-05-06 04:51 31.60003 120.10311 14632 ft 330 kts 274°
2026-05-06 04:51 31.60135 120.07645 15060 ft 327 kts 273°
2026-05-06 04:52 31.60254 120.04972 15333 ft 330 kts 273°
2026-05-06 04:52 31.60381 120.02268 15523 ft 334 kts 273°
2026-05-06 04:52 31.60500 119.99541 15627 ft 331 kts 273°
2026-05-06 04:52 31.60632 119.96851 15649 ft 330 kts 274°
2026-05-06 04:53 31.60766 119.94170 15658 ft 328 kts 273°
2026-05-06 04:53 31.60885 119.91482 15660 ft 327 kts 273°
2026-05-06 04:53 31.61008 119.88814 15663 ft 329 kts 274°
2026-05-06 04:53 31.61141 119.86175 15658 ft 330 kts 274°
2026-05-06 04:54 31.61263 119.83489 15653 ft 329 kts 273°
2026-05-06 04:54 31.61374 119.80795 15661 ft 332 kts 273°
2026-05-06 04:54 31.61488 119.78080 15657 ft 332 kts 273°
2026-05-06 04:54 31.61614 119.75388 15663 ft 331 kts 273°
2026-05-06 04:55 31.61735 119.72681 15670 ft 330 kts 273°
2026-05-06 04:55 31.61852 119.69980 15654 ft 336 kts 273°
2026-05-06 04:55 31.61980 119.67194 15664 ft 347 kts 273°
2026-05-06 04:55 31.62164 119.64325 15681 ft 359 kts 275°
2026-05-06 04:56 31.62427 119.61397 15671 ft 363 kts 276°
2026-05-06 04:56 31.62706 119.58485 15660 ft 361 kts 276°
2026-05-06 04:56 31.62971 119.55546 15652 ft 362 kts 276°
2026-05-06 04:56 31.63232 119.52618 15647 ft 361 kts 276°
2026-05-06 04:57 31.63494 119.49682 15645 ft 361 kts 276°
2026-05-06 04:57 31.63754 119.46755 15638 ft 361 kts 276°
2026-05-06 04:57 31.63991 119.43828 15635 ft 361 kts 275°
2026-05-06 04:57 31.64232 119.40876 15636 ft 362 kts 276°
2026-05-06 04:58 31.64483 119.37997 15526 ft 347 kts 276°
2026-05-06 04:58 31.64713 119.35237 15224 ft 334 kts 275°
2026-05-06 04:58 31.64927 119.32543 14766 ft 329 kts 275°
2026-05-06 04:58 31.65150 119.29858 14120 ft 333 kts 275°
2026-05-06 04:59 31.65371 119.27160 13403 ft 338 kts 275°
2026-05-06 04:59 31.65590 119.24410 12661 ft 338 kts 275°
2026-05-06 04:59 31.65804 119.21691 12185 ft 325 kts 275°
2026-05-06 04:59 31.66012 119.19139 11948 ft 294 kts 275°
2026-05-06 05:00 31.66207 119.16848 10983 ft 272 kts 274°
2026-05-06 05:00 31.66397 119.14636 10125 ft 275 kts 274°
2026-05-06 05:00 31.66583 119.12356 9452 ft 281 kts 274°
2026-05-06 05:00 31.66767 119.10117 8812 ft 277 kts 273°
2026-05-06 05:01 31.66953 119.07836 8274 ft 283 kts 273°
2026-05-06 05:01 31.67142 119.05530 7717 ft 276 kts 273°
2026-05-06 05:01 31.67321 119.03392 7114 ft 256 kts 273°
2026-05-06 05:01 31.67491 119.01263 6521 ft 264 kts 272°
2026-05-06 05:02 31.67662 118.99176 6119 ft 243 kts 272°
2026-05-06 05:02 31.67767 118.97893 5995 ft 239 kts 271°
2026-05-06 05:02 31.67506 118.96027 5942 ft 229 kts 240°
2026-05-06 05:02 31.66479 118.93881 5906 ft 226 kts 237°
2026-05-06 05:03 31.65934 118.92817 5923 ft 225 kts 235°
2026-05-06 05:03 31.65095 118.91261 5896 ft 224 kts 234°
2026-05-06 05:03 31.63973 118.89219 5924 ft 225 kts 234°
2026-05-06 05:03 31.63399 118.88184 5878 ft 226 kts 234°
2026-05-06 05:04 31.62531 118.86629 5556 ft 234 kts 234°
2026-05-06 05:04 31.61643 118.85013 5208 ft 230 kts 235°
2026-05-06 05:04 31.60809 118.83490 4836 ft 212 kts 235°
2026-05-06 05:04 31.60061 118.82100 4572 ft 190 kts 236°
2026-05-06 05:05 31.59358 118.80788 4348 ft 190 kts 235°
2026-05-06 05:05 31.58645 118.79487 4135 ft 190 kts 235°
2026-05-06 05:05 31.57940 118.78174 3825 ft 190 kts 236°
2026-05-06 05:05 31.57300 118.76823 3423 ft 191 kts 251°
2026-05-06 05:06 31.57447 118.75286 3063 ft 201 kts 294°
2026-05-06 05:06 31.58303 118.73963 2667 ft 203 kts 308°
2026-05-06 05:06 31.59312 118.72805 2450 ft 201 kts 316°
2026-05-06 05:06 31.60406 118.71802 2381 ft 197 kts 321°
2026-05-06 05:07 31.61541 118.70928 2329 ft 195 kts 335°
2026-05-06 05:07 31.62899 118.70895 2367 ft 203 kts 21°
2026-05-06 05:07 31.64044 118.71829 2386 ft 201 kts 47°
2026-05-06 05:07 31.64995 118.73043 2208 ft 205 kts 53°
2026-05-06 05:08 31.65833 118.74386 1986 ft 200 kts 58°
2026-05-06 05:08 31.66571 118.75746 1744 ft 193 kts 62°
2026-05-06 05:08 31.67275 118.77039 1596 ft 182 kts 60°
2026-05-06 05:08 31.67885 118.78244 1289 ft 158 kts 62°
2026-05-06 05:09 31.68426 118.79298 1125 ft 147 kts 62°
2026-05-06 05:09 31.68951 118.80280 955 ft 143 kts 61°
2026-05-06 05:09 31.69483 118.81270 671 ft 143 kts 62°
2026-05-06 05:09 31.70010 118.82262 591 ft 147 kts 59°
2026-05-06 05:10 31.70518 118.83268 371 ft 140 kts 59°
2026-05-06 05:10 31.71058 118.84224 214 ft 140 kts 56°
2026-05-06 05:10 31.71556 118.85186 84 ft 135 kts 58°
2026-05-06 05:10 31.72011 118.86050 57 ft 111 kts 58°
2026-05-06 05:11 31.72356 118.86693 55 ft 66 kts 58°
2026-05-06 05:11 31.72579 118.87010 60 ft 36 kts 33°
2026-05-06 05:11 31.72699 118.87084 59 ft 11 kts 353°
2026-05-06 05:11 31.72719 118.87010 52 ft 11 kts 250°
2026-05-06 05:12 31.72686 118.86936 50 ft 10 kts 240°
2026-05-06 05:12 31.72651 118.86870 56 ft 9 kts 237°
2026-05-06 05:12 31.72616 118.86805 56 ft 10 kts 238°
2026-05-06 05:12 31.72593 118.86723 54 ft 13 kts 305°
2026-05-06 05:13 31.72675 118.86663 53 ft 16 kts 329°
2026-05-06 05:13 31.72775 118.86589 57 ft 18 kts 328°
2026-05-06 05:13 31.72892 118.86504 55 ft 21 kts 328°
2026-05-06 05:13 31.73008 118.86428 56 ft 18 kts 350°
2026-05-06 05:14 31.73056 118.86522 56 ft 15 kts 81°
2026-05-06 05:14 31.73110 118.86632 54 ft 16 kts 57°
2026-05-06 05:14 31.73111 118.86707 55 ft 9 kts 153°
2026-05-06 05:14 31.73064 118.86741 58 ft 3 kts 147°
2026-05-06 05:15 31.73062 118.86742 58 ft 0 kts 147°